Location: ??????????
(44.2167°N, 135.5333°E)
Time: 14:57:59
(UTC+00:00)

NOSS 3-1 (A) - Pass Details

Date: 15 June 2025
Orbit: 639 x 1568 km, 63.4° (Epoch: 21 June)

Event Time Altitude Azimuth Distance (km) Brightness Sun altitude
Rises 15:24:33 0° 320° (NW) 3,888 7.3 -22.2°
Reaches altitude 10° 15:27:01 10° 316° (NW) 3,051 6.6 -22.1°
Maximum altitude 15:34:22 60° 239° (WSW) 1,502 4.2 -21.9°
Enters shadow 15:38:26 33° 175° (S) 2,193 4.8 -21.8°
